カタログに戻る

VIASAT 3-F2

運用中通信GEO
NORAD 66454·PAYLOAD·🇺🇸 United States

打ち上げ Nov 13, 2025 から Cape Canaveral Space Force Station

Loading…

TLE

最新Source: Space-Track

元期: Sep 14, 2026, 13:25 UTC

1 66454U 25261A   26257.55945750 -.00000241  00000-0  00000-0 0  9991
2 66454   0.0060 106.3723 0000988 161.0490 208.5120  1.00272495  3697

AllMySatでVIASAT 3-F2をリアルタイム追跡

Download on the App Store